DW2659 Weather Reports


Display with metric or nautical units.
time (UTC)temp
F
wind
direction
speed
MPH
gust
MPH
rain 1hr
in
rain 24hr
in
rain mn
in
humidity
%
barometer
mb
20260510180405 79 78 2.0 3.0 0.00 0.00 0.00 46 1016.5
20260510175904 80 80 1.0 3.0 0.00 0.00 0.00 49 1016.5
20260510175404 80 106 1.0 3.0 0.00 0.00 0.00 45 1016.7
20260510174905 79 338 0.0 1.0 0.00 0.00 0.00 45 1016.7
20260510174405 79 338 1.0 3.0 0.00 0.00 0.00 47 1016.7
20260510173904 78 300 1.0 3.0 0.00 0.00 0.00 48 1016.7
20260510172904 78 244 3.0 6.0 0.00 0.00 0.00 45 1016.7
20260510172404 78 189 1.0 3.0 0.00 0.00 0.00 46 1017.0
20260510171905 78 247 2.0 5.0 0.00 0.00 0.00 47 1017.0
20260510171404 78 187 2.0 3.0 0.00 0.00 0.00 47 1017.0
20260510170903 78 240 1.0 3.0 0.00 0.00 0.00 48 1017.0
20260510165904 80 186 2.0 3.0 0.00 0.00 0.00 44 1016.9
20260510165404 80 113 1.0 2.0 0.00 0.00 0.00 47 1016.9
20260510164905 79 38 1.0 2.0 0.00 0.00 0.00 53 1016.9
20260510164404 78 115 3.0 6.0 0.00 0.00 0.00 51 1016.9
20260510163904 78 189 2.0 6.0 0.00 0.00 0.00 50 1016.9
20260510163405 78 136 3.0 6.0 0.00 0.00 0.00 48 1016.9
20260510162904 78 118 2.0 7.0 0.00 0.00 0.00 52 1017.1
20260510162404 78 77 2.0 3.0 0.00 0.00 0.00 53 1017.1
20260510161905 78 67 2.0 5.0 0.00 0.00 0.00 52 1017.1
20260510161404 78 110 3.0 6.0 0.00 0.00 0.00 55 1017.0
20260510160904 77 93 1.0 3.0 0.00 0.00 0.00 58 1017.0
20260510160405 77 78 1.0 3.0 0.00 0.00 0.00 56 1017.0
20260510155904 77 109 4.0 6.0 0.00 0.00 0.00 56 1017.2
20260510155404 77 53 1.0 2.0 0.00 0.00 0.00 61 1017.2
20260510154405 76 125 2.0 3.0 0.00 0.00 0.00 62 1017.1
20260510153903 75 230 3.0 6.0 0.00 0.00 0.00 62 1017.1
20260510151904 74 142 1.0 3.0 0.00 0.00 0.00 67 1017.1
20260510151404 73 132 3.0 6.0 0.00 0.00 0.00 66 1017.1
20260510150905 73 140 4.0 6.0 0.00 0.00 0.00 67 1017.1
20260510150404 73 173 2.0 5.0 0.00 0.00 0.00 67 1017.1
20260510145904 74 107 2.0 6.0 0.00 0.00 0.00 69 1017.1
20260510145405 73 69 1.0 3.0 0.00 0.00 0.00 68 1017.1
20260510144902 72 155 3.0 3.0 0.00 0.00 0.00 70 1017.1
20260510143903 70 84 1.0 3.0 0.00 0.00 0.00 71 1017.2
20260510143402 70 135 3.0 5.0 0.00 0.00 0.00 72 1017.2
20260510142403 69 211 2.0 5.0 0.00 0.00 0.00 75 1017.3
20260510141903 69 195 2.0 3.0 0.00 0.00 0.00 75 1017.2
20260510141402 68 133 3.0 5.0 0.00 0.00 0.00 76 1017.3
20260510140902 68 101 2.0 5.0 0.00 0.00 0.00 76 1017.3
20260510140403 67 116 1.0 3.0 0.00 0.00 0.00 79 1017.3
20260510135903 67 196 1.0 3.0 0.00 0.00 0.00 79 1017.1
20260510134404 65 228 0.0 2.0 0.00 0.00 0.00 85 1017.0
20260510133903 64 258 1.0 3.0 0.00 0.00 0.00 85 1017.0
20260510132904 63 168 1.0 3.0 0.00 0.00 0.00 88 1016.9
20260510132403 63 118 2.0 3.0 0.00 0.00 0.00 88 1016.9
20260510131903 63 108 2.0 3.0 0.00 0.00 0.00 89 1017.0
20260510131404 62 116 1.0 2.0 0.00 0.00 0.00 89 1016.9
20260510130903 62 122 1.0 3.0 0.00 0.00 0.00 89 1016.9
20260510130405 61 169 0.0 1.0 0.00 0.00 0.00 89 1016.9
20260510125403 60 169 0.0 1.0 0.00 0.00 0.00 89 1016.8
20260510124903 60 169 0.0 1.0 0.00 0.00 0.00 89 1016.8
20260510124403 59 169 0.0 1.0 0.00 0.00 0.00 89 1016.8
20260510123903 59 169 0.0 0.0 0.00 0.00 0.00 89 1016.6
20260510123403 58 169 0.0 0.0 0.00 0.00 0.00 89 1016.6
20260510122902 58 169 0.0 1.0 0.00 0.00 0.00 89 1016.7
20260510122402 57 169 1.0 1.0 0.00 0.00 0.00 89 1016.7
20260510121904 57 169 0.0 1.0 0.00 0.00 0.00 89 1016.7
20260510121402 56 169 0.0 1.0 0.00 0.00 0.00 89 1016.7
20260510120403 56 169 0.0 0.0 0.00 0.00 0.00 88 1016.5
20260510115904 55 169 0.0 0.0 0.00 0.00 0.00 88 1016.0
20260510115403 55 169 0.0 0.0 0.00 0.00 0.00 88 1016.0
20260510114903 55 169 0.0 0.0 0.00 0.00 0.00 88 1016.0
20260510114404 55 169 0.0 1.0 0.00 0.00 0.00 88 1016.0
20260510113403 54 169 0.0 0.0 0.00 0.00 0.00 88 1016.0
20260510112903 54 169 0.0 0.0 0.00 0.00 0.00 88 1016.0
20260510112403 54 169 0.0 0.0 0.00 0.00 0.00 88 1015.5
20260510110902 54 169 0.0 0.0 0.00 0.00 0.00 88 1015.5
20260510110403 54 169 0.0 0.0 0.00 0.00 0.00 88 1015.4
20260510105906 54 169 0.0 0.0 0.00 0.00 0.00 88 1015.2
20260510105403 54 169 0.0 0.0 0.00 0.00 0.00 88 1015.2
20260510104903 54 169 0.0 0.0 0.00 0.00 0.00 87 1015.2
20260510104403 54 169 0.0 0.0 0.00 0.00 0.00 87 1015.1
20260510103903 54 169 0.0 0.0 0.00 0.00 0.00 87 1015.1
20260510103403 54 169 0.0 0.0 0.00 0.00 0.00 87 1015.1
20260510102904 54 169 0.0 0.0 0.00 0.00 0.00 87 1015.1
20260510102403 54 169 0.0 0.0 0.00 0.00 0.00 87 1015.1
20260510101902 54 169 0.0 0.0 0.00 0.00 0.00 87 1015.1
20260510101404 54 169 0.0 0.0 0.00 0.00 0.00 87 1014.9
20260510100902 54 169 0.0 0.0 0.00 0.00 0.00 87 1014.9
20260510100403 54 169 0.0 0.0 0.00 0.00 0.00 87 1014.9
20260510095904 54 169 0.0 0.0 0.00 0.00 0.00 87 1014.5
20260510095403 54 169 0.0 0.0 0.00 0.00 0.00 87 1014.5
20260510094902 54 169 0.0 0.0 0.00 0.00 0.00 87 1014.5
20260510094403 55 169 0.0 0.0 0.00 0.00 0.00 87 1014.5
20260510093403 54 169 0.0 1.0 0.00 0.00 0.00 87 1014.5
20260510092903 54 169 0.0 1.0 0.00 0.00 0.00 87 1014.5
20260510092404 54 169 0.0 0.0 0.00 0.00 0.00 87 1014.5
20260510091903 54 169 0.0 0.0 0.00 0.00 0.00 87 1014.5
20260510091403 54 169 0.0 0.0 0.00 0.00 0.00 87 1014.5
20260510090904 54 169 0.0 0.0 0.00 0.00 0.00 87 1014.5
20260510090403 54 169 0.0 0.0 0.00 0.00 0.00 87 1014.5
20260510085404 54 169 0.0 0.0 0.00 0.00 0.00 87 1014.2
20260510084902 55 169 0.0 0.0 0.00 0.00 0.00 87 1014.2
20260510084403 55 169 0.0 0.0 0.00 0.00 0.00 86 1014.0
20260510083904 55 169 0.0 0.0 0.00 0.00 0.00 86 1014.0
20260510083402 55 169 0.0 0.0 0.00 0.00 0.00 87 1014.0
20260510082903 55 169 0.0 0.0 0.00 0.00 0.00 86 1014.0
20260510082404 55 169 0.0 0.0 0.00 0.00 0.00 86 1013.9
20260510081903 55 169 0.0 0.0 0.00 0.00 0.00 86 1013.9
20260510081403 55 169 0.0 0.0 0.00 0.00 0.00 86 1013.6
20260510080904 55 169 0.0 0.0 0.00 0.00 0.00 86 1013.6
20260510080403 56 169 0.0 0.0 0.00 0.00 0.00 86 1013.6
20260510075903 56 169 0.0 0.0 0.00 0.00 0.00 86 1013.3
20260510075405 56 169 0.0 0.0 0.00 0.00 0.00 87 1013.3
20260510074903 56 169 0.0 0.0 0.00 0.00 0.00 87 1013.3
20260510074403 56 169 0.0 0.0 0.00 0.00 0.00 86 1013.3
20260510073903 56 169 0.0 0.0 0.00 0.00 0.00 86 1013.3
20260510072903 56 169 0.0 1.0 0.00 0.00 0.00 86 1013.3
20260510072403 56 169 0.0 0.0 0.00 0.00 0.00 86 1013.3
20260510071903 56 169 0.0 0.0 0.00 0.00 0.00 86 1013.3
20260510071404 57 169 0.0 1.0 0.00 0.00 0.00 86 1013.3
20260510070903 57 169 0.0 1.0 0.00 0.00 0.00 86 1013.3
20260510070402 57 169 0.0 0.0 0.00 0.00 0.00 86 1013.3
20260510065904 57 169 0.0 0.0 0.00 0.00 0.00 86 1013.5
20260510065402 57 169 0.0 1.0 0.00 0.00 0.00 86 1013.5
20260510064903 57 169 0.0 0.0 0.00 0.00 0.00 86 1013.5
20260510064404 57 169 0.0 0.0 0.00 0.00 0.00 85 1013.5
20260510063903 57 169 0.0 0.0 0.00 0.00 0.00 86 1013.5
20260510063403 57 169 0.0 1.0 0.00 0.00 0.00 85 1013.5
20260510062904 58 169 0.0 0.0 0.00 0.00 0.00 85 1013.4
20260510062403 58 169 0.0 0.0 0.00 0.00 0.00 85 1013.4
20260510061903 58 169 0.0 1.0 0.00 0.00 0.00 85 1013.5
20260510060903 58 169 0.0 2.0 0.00 0.00 0.00 85 1013.5
20260510060404 58 169 0.0 1.0 0.00 0.00 0.00 85 1013.5
20260510055904 58 169 0.0 1.0 0.00 0.00 0.00 85 1013.5
20260510054903 59 169 0.0 0.0 0.00 0.00 0.00 85 1013.5
20260510054404 59 169 0.0 0.0 0.00 0.00 0.00 84 1013.6
20260510053403 59 169 0.0 0.0 0.00 0.00 0.00 84 1013.6
20260510052903 59 169 0.0 0.0 0.00 0.00 0.00 84 1013.5
20260510052404 60 169 0.0 0.0 0.00 0.00 0.00 84 1013.5
20260510051903 60 169 0.0 0.0 0.00 0.00 0.00 84 1013.5
20260510051403 60 169 0.0 1.0 0.00 0.00 0.00 83 1014.1
20260510050903 60 169 0.0 1.0 0.00 0.00 0.00 83 1014.1
20260510050404 61 169 0.0 1.0 0.00 0.00 0.00 83 1014.1
20260510045903 61 213 0.0 0.0 0.00 0.00 0.00 83 1014.1
20260510045403 61 213 0.0 0.0 0.00 0.00 0.00 83 1014.1
20260510044404 61 114 0.0 0.0 0.00 0.00 0.00 82 1013.8
20260510043903 61 114 0.0 1.0 0.00 0.00 0.00 82 1013.8
20260510043404 61 114 0.0 0.0 0.00 0.00 0.00 82 1013.8
20260510042903 62 114 0.0 0.0 0.00 0.00 0.00 81 1013.9
20260510041903 62 114 0.0 1.0 0.00 0.00 0.00 81 1013.8
20260510041403 62 114 0.0 1.0 0.00 0.00 0.00 81 1013.7
20260510040905 63 114 1.0 3.0 0.00 0.00 0.00 80 1013.7
20260510040403 63 242 0.0 2.0 0.00 0.00 0.00 80 1013.7
20260510035903 63 267 0.0 2.0 0.00 0.00 0.00 81 1013.7
20260510035404 63 263 1.0 2.0 0.00 0.00 0.00 82 1013.7
20260510034904 63 250 0.0 1.0 0.00 0.00 0.00 82 1013.7
20260510033904 63 250 0.0 0.0 0.00 0.00 0.00 81 1013.2
20260510033405 63 250 0.0 0.0 0.00 0.00 0.00 80 1013.2
20260510032903 64 250 0.0 2.0 0.00 0.00 0.00 79 1013.2
20260510032403 64 250 1.0 2.0 0.00 0.00 0.00 79 1013.2
20260510031904 65 243 1.0 2.0 0.00 0.00 0.00 78 1013.2
20260510031403 65 243 1.0 2.0 0.00 0.00 0.00 77 1013.4
20260510030903 65 269 0.0 2.0 0.00 0.00 0.00 77 1013.4
20260510030405 65 276 1.0 3.0 0.00 0.00 0.00 77 1013.4
20260510025903 65 250 1.0 2.0 0.00 0.00 0.00 77 1013.2
20260510025403 65 238 1.0 3.0 0.00 0.00 0.00 77 1013.2
20260510024904 65 241 1.0 2.0 0.00 0.00 0.00 77 1013.2
20260510023903 66 262 1.0 2.0 0.00 0.00 0.00 76 1013.2
20260510023405 66 239 1.0 2.0 0.00 0.00 0.00 76 1013.1
20260510022903 66 254 1.0 2.0 0.00 0.00 0.00 76 1013.0
20260510022403 66 222 1.0 3.0 0.00 0.00 0.00 76 1013.0
20260510021904 66 250 1.0 2.0 0.00 0.00 0.00 77 1013.0
20260510021404 66 215 1.0 2.0 0.00 0.00 0.00 77 1012.8
20260510020904 65 250 0.0 1.0 0.00 0.00 0.00 77 1012.8
20260510015905 65 202 0.0 1.0 0.00 0.00 0.00 78 1012.7
20260510014903 65 192 0.0 2.0 0.00 0.00 0.00 78 1012.7
20260510014404 65 244 0.0 0.0 0.00 0.00 0.00 78 1012.4
20260510013903 65 244 0.0 0.0 0.00 0.00 0.00 78 1012.4
20260510013404 65 244 0.0 0.0 0.00 0.00 0.00 78 1012.4
20260510012904 65 244 0.0 0.0 0.00 0.00 0.00 78 1012.2
20260510012403 65 244 0.0 0.0 0.00 0.00 0.00 78 1012.2
20260510011904 66 244 0.0 0.0 0.00 0.00 0.00 77 1012.2
20260510011404 66 244 0.0 0.0 0.00 0.00 0.00 77 1012.1
20260510010404 66 244 0.0 0.0 0.00 0.00 0.00 76 1012.1
20260510005904 67 244 0.0 0.0 0.00 0.00 0.00 76 1011.8
20260510005404 67 244 0.0 0.0 0.00 0.00 0.00 75 1011.8
20260510004404 68 244 0.0 0.0 0.00 0.00 0.00 75 1011.8
20260510003904 68 244 0.0 0.0 0.00 0.00 0.00 74 1011.8
20260510002904 68 244 0.0 1.0 0.00 0.00 0.00 74 1011.6
20260510002403 69 244 0.0 0.0 0.00 0.00 0.00 73 1011.6
20260510001904 69 244 0.0 0.0 0.00 0.00 0.00 73 1011.6
20260510001404 69 244 0.0 0.0 0.00 0.00 0.00 73 1011.2
20260510000903 69 244 0.0 0.0 0.00 0.00 0.00 72 1011.2
20260510000404 70 244 0.0 1.0 0.00 0.00 0.00 72 1011.2
20260509235905 70 244 0.0 1.0 0.00 0.00 0.00 71 1011.3
20260509235403 71 244 0.0 0.0 0.00 0.00 0.00 70 1011.3
20260509234903 71 244 0.0 2.0 0.00 0.00 0.00 69 1011.3
20260509234405 71 244 0.0 1.0 0.00 0.00 0.00 68 1011.2
20260509233903 71 244 0.0 1.0 0.00 0.00 0.00 69 1011.2
20260509233403 71 244 0.0 1.0 0.00 0.00 0.00 69 1011.2
20260509232904 71 244 0.0 2.0 0.00 0.00 0.00 68 1011.1
20260509232403 71 231 1.0 2.0 0.00 0.00 0.00 68 1011.1
20260509231903 71 249 1.0 3.0 0.00 0.00 0.00 68 1011.1
20260509231404 72 204 2.0 5.0 0.00 0.00 0.00 68 1011.1
20260509230905 72 217 0.0 3.0 0.00 0.00 0.00 68 1011.0
20260509230404 72 220 1.0 3.0 0.00 0.00 0.00 67 1011.0
20260509225904 72 263 1.0 3.0 0.00 0.00 0.00 67 1011.0
20260509225404 72 252 1.0 3.0 0.00 0.00 0.00 66 1011.0
20260509224404 72 263 1.0 5.0 0.00 0.00 0.00 66 1011.1
20260509223904 72 171 4.0 6.0 0.00 0.00 0.00 65 1010.9
20260509223403 73 216 2.0 3.0 0.00 0.00 0.00 66 1010.9
20260509222904 72 126 2.0 5.0 0.00 0.00 0.00 66 1010.9
20260509222405 72 156 2.0 5.0 0.00 0.00 0.00 66 1010.9
20260509221903 72 242 3.0 7.0 0.00 0.00 0.00 65 1010.9
20260509220904 73 162 5.0 8.0 0.00 0.00 0.00 65 1010.7
20260509220404 73 126 3.0 6.0 0.00 0.00 0.00 65 1010.7
20260509215904 73 169 3.0 6.0 0.00 0.00 0.00 64 1010.6
20260509215405 73 146 2.0 6.0 0.00 0.00 0.00 65 1010.6
20260509214904 73 231 1.0 3.0 0.00 0.00 0.00 65 1010.6
20260509214403 72 139 2.0 5.0 0.00 0.00 0.00 65 1010.7
20260509213905 72 159 3.0 5.0 0.00 0.00 0.00 66 1010.7
20260509213404 72 248 2.0 6.0 0.00 0.00 0.00 66 1010.7
20260509212903 72 262 3.0 5.0 0.00 0.00 0.00 65 1010.7
20260509212405 72 272 2.0 5.0 0.00 0.00 0.00 64 1010.7
20260509211903 72 124 3.0 6.0 0.00 0.00 0.00 65 1010.7
20260509211404 72 117 2.0 6.0 0.00 0.00 0.00 66 1010.7
20260509210904 72 177 4.0 7.0 0.00 0.00 0.00 66 1010.7
20260509210403 72 154 4.0 7.0 0.00 0.00 0.00 65 1010.1
20260509205903 72 108 5.0 6.0 0.00 0.00 0.00 66 1010.1
20260509205403 72 244 5.0 7.0 0.00 0.00 0.00 65 1010.1
20260509204403 72 185 3.0 6.0 0.00 0.00 0.00 65 1010.1
20260509203903 72 172 3.0 8.0 0.00 0.00 0.00 64 1010.1
20260509203405 72 140 3.0 6.0 0.00 0.00 0.00 65 1010.1
20260509202904 72 220 3.0 6.0 0.00 0.00 0.00 65 1010.1
20260509202404 73 107 2.0 5.0 0.00 0.00 0.00 64 1010.1
20260509201903 73 164 3.0 6.0 0.00 0.00 0.00 64 1010.1
20260509201405 73 131 3.0 6.0 0.00 0.00 0.00 64 1010.1
20260509200904 72 180 3.0 6.0 0.00 0.00 0.00 64 1010.1
20260509200404 73 163 4.0 7.0 0.00 0.00 0.00 65 1010.1
20260509195905 73 194 5.0 9.0 0.00 0.00 0.00 63 1010.8
20260509195404 73 156 4.0 8.0 0.00 0.00 0.00 63 1010.8
20260509194903 73 108 2.0 7.0 0.00 0.00 0.00 64 1010.8
20260509193905 72 236 2.0 8.0 0.00 0.00 0.00 64 1010.8
20260509193403 72 156 2.0 5.0 0.00 0.00 0.00 63 1010.8
20260509192903 72 246 3.0 6.0 0.00 0.00 0.00 62 1010.8
20260509192404 73 182 1.0 5.0 0.00 0.00 0.00 63 1010.8
20260509191904 72 133 3.0 7.0 0.00 0.00 0.00 62 1010.8
20260509190905 73 253 3.0 8.0 0.00 0.00 0.00 61 1010.9
20260509190404 73 131 3.0 6.0 0.00 0.00 0.00 60 1010.9
20260509185404 73 113 1.0 3.0 0.00 0.00 0.00 59 1011.1
20260509184904 73 232 2.0 5.0 0.00 0.00 0.00 60 1011.1
20260509184403 72 215 2.0 5.0 0.00 0.00 0.00 59 1011.2
20260509183905 72 237 2.0 5.0 0.00 0.00 0.00 60 1011.2
20260509183404 73 233 2.0 5.0 0.00 0.00 0.00 57 1011.2
20260509182903 73 95 1.0 3.0 0.00 0.00 0.00 57 1011.2
20260509182404 73 187 2.0 3.0 0.00 0.00 0.00 59 1011.2
20260509181404 72 221 2.0 6.0 0.00 0.00 0.00 58 1011.2